Location: Aalen
(48.8330°N, 10.1000°E)
Time: 07:58:04
(UTC+01:00)

N. Korean satellite - Pass Details

Date: 11 December 2022
Orbit: 407 x 442 km, 97.3° (Epoch: 04 February)

Event Time Altitude Azimuth Distance (km) Brightness Sun altitude
Rises 06:09:23 0° 7° (N) 2,498 10.1 -17.6°
Reaches altitude 10° 06:11:30 10° 2° (N) 1,610 9.1 -17.3°
Maximum altitude 06:14:49 46° 288° (WNW) 620 6.6 -16.8°
Drops below altitude 10° 06:18:03 10° 214° (SW) 1,568 9.0 -16.3°
Sets 06:20:05 0° 208° (SSW) 2,422 10.0 -15.9°
